Location: Newark
(43.0072°N, 73.8511°W)
Time: 05:56:13
(UTC+00:00)

Hubble Space Telescope - Visible Passes

Search period start: 29 January 2020 00:00
Search period end: 08 February 2020 00:00
Orbit: 536 x 540 km, 28.5° (Epoch: 28 January)

Date Brightness Start Highest point End Pass type
(mag) Time Alt. Az. Time Alt. Az. Time Alt. Az.
01 Feb 3.5 11:41:21 10° S 11:42:10 10° S 11:43:00 10° SSE visible
02 Feb 3.5 11:30:34 10° SSW 11:31:24 11° S 11:32:14 10° S visible
03 Feb 3.5 11:20:01 10° SSW 11:20:38 10° S 11:21:15 10° S visible
